This demonstration page uses our WeatherBlox Daily Observations layout. Learn more.

Left ArrowRight Arrow

41.55636, -103.73856

Hourly Observations for December 30, 2020

Temp ( °F °C ) Dew Point ( °F °C ) Humidity (%) Winds ( mph kmh ) Pressure ( in mb ) Visibility ( mi km ) Precip ( " mm )
12:58 am 00:58 Clear 12 -11 7 -13.9 79 79 W 6 9 30.25 1024 10 16 0.00 0.00
1:58 am 01:58 Clear 13 -10.8 6 -14.2 76 76 W 5 7 30.25 1024 10 16 0.00 0.00
2:58 am 02:58 Clear 11 -11.6 5 -15 76 76 W 3 6 30.25 1024 10 16 0.00 0.00
3:58 am 03:58 Clear 12 -11.2 5 -14.9 74 74 W 9 15 30.24 1024 10 16 0.00 0.00
4:58 am 04:58 Clear 13 -10.5 5 -14.9 70 70 W 10 17 30.24 1024 10 16 0.00 0.00
5:58 am 05:58 Clear 10 -12.3 3 -16.1 74 74 W 8 13 30.29 1026 10 16 0.00 0.00
6:58 am 06:58 Clear 10 -12.5 2 -16.5 72 72 W 10 17 30.29 1026 10 16 0.00 0.00
7:58 am 07:58 Sunny 11 -11.7 3 -16.2 70 70 WSW 10 17 30.31 1027 10 16 0.00 0.00
8:58 am 08:58 Sunny 20 -6.5 7 -14 56 56 WNW 10 17 30.28 1026 10 16 0.00 0.00
9:58 am 09:58 Sunny 20 -6.5 11 -11.9 66 66 W 5 7 30.28 1026 10 16 0.00 0.00
10:58 am 10:58 Sunny 29 -1.7 13 -10.8 50 50 W 10 17 30.24 1024 10 16 0.00 0.00
11:58 am 11:58 Sunny 32 -0.1 13 -10.6 45 45 NW 9 15 30.21 1023 10 16 0.00 0.00
12:58 pm 12:58 Sunny 34 0.9 14 -9.9 45 45 NW 14 22 30.16 1022 10 16 0.00 0.00
1:58 pm 13:58 Sunny 34 1.3 15 -9.7 44 44 NW 9 15 30.14 1021 10 16 0.00 0.00
2:58 pm 14:58 Sunny 35 1.9 15 -9.3 44 44 WNW 10 17 30.14 1021 10 16 0.00 0.00
3:58 pm 15:58 Sunny 31 -0.4 14 -10.2 48 48 WSW 12 19 30.16 1021 10 16 0.00 0.00
4:58 pm 16:58 Clear 25 -3.7 13 -10.6 59 59 SSW 8 13 30.17 1022 10 16 0.00 0.00
5:58 pm 17:58 Clear 24 -4.6 11 -11.9 57 57 SSW 12 19 30.18 1022 10 16 0.00 0.00
6:58 pm 18:58 Clear 23 -5.1 7 -13.8 51 51 SSW 10 17 30.18 1022 10 16 0.00 0.00
7:58 pm 19:58 Clear 22 -5.3 5 -15 47 47 SSW 10 17 30.16 1021 10 16 0.00 0.00
8:58 pm 20:58 Clear 21 -6.1 5 -14.8 51 51 SSW 10 17 30.12 1020 10 16 0.00 0.00
9:58 pm 21:58 Clear 21 -6.3 7 -13.7 56 56 SW 10 17 30.11 1020 10 16 0.00 0.00
10:58 pm 22:58 Clear 21 -6 8 -13.3 57 57 SSW 9 15 30.09 1019 10 16 0.00 0.00
11:58 pm 23:58 Clear 22 -5.3 9 -12.7 56 56 SW 8 13 30.06 1018 10 16 0.00 0.00

Powered by AerisWeather